COMSATBW-2

Last updated on Nov. 15, 2019, 4:20 a.m. UTC

1 36582U 10021B   19318.32479859  .00000104  00000-0  00000+0 0  9991
2 36582   0.0163  36.0429 0002494 216.1930 291.1322  1.00277723 34850
UTC
Height (km)
Latitude
Longitude
Inclination
Orbital Period
UTC large
Height (km)
Speed (km/s)
/
Latitude / Longitude
Inclination (degrees)
Orbital Period (minutes)
Azimuth
Elevation
Range (km)
Doppler Factor
iOS Compass Heading
iOS Angle

Next 30 passes for location: Hong Kong

Rise time Rise Azimuth (degrees) Set time Set Azimuth (degrees) Duration Max altitude (degrees)

No matching passes for this satellites